Weather History for KFST - October, 2012

Change the Weather History Date:

Wednesday, October 17, 2012

  Actual Average Record
Temperature  
Mean Temperature 79 °F -  
Max Temperature 90 °F 76 °F 98 °F (2011)
Min Temperature 68 °F 52 °F 43 °F (1999)
Cooling Degree Days 14    
Growing Degree Days 29 (Base 50)    
Moisture  
Dew Point 41 °F    
Average Humidity 34    
Maximum Humidity 63    
Minimum Humidity 10    
Precipitation  
Precipitation 0.00 in - - ()
Sea Level Pressure  
Sea Level Pressure 29.68 in    
Wind  
Wind Speed 16 mph (WSW)    
Max Wind Speed 22 mph    
Max Gust Speed 28 mph    
Visibility 10 miles    
Events      
Averages and records for this station are not official NWS values.
T = Trace of Precipitation, MM = Missing Value Source: NWS Daily Summary

Daily Weather History Graph

Daily Weather History Graph

Search for Another Location

Airport or City:

Trip Planner

Search our weather history database for the weather conditions in past years. The results will help you decide how hot, cold, wet, or windy it might be!

Date:

Astronomy

Oct. 17, 2012 Rise Set
Actual Time 7:55 AM CDT 7:17 PM CDT
Civil Twilight 7:31 AM CDT 7:41 PM CDT
Nautical Twilight 7:03 AM CDT 8:09 PM CDT
Astronomical Twilight 6:35 AM CDT 8:37 PM CDT
Moon 10:20 AM CDT (10/17) 9:07 PM CDT (10/17)
Length of Visible Light 12h 10m
Length of Day
11h 21m
Waxing Crescent, 7% of the Moon is Illuminated
Oct 17
Waxing Crescent
Oct 21
First Quarter
Oct 29
Full
Nov 6
Last Quarter
Nov 13
New

Hourly Weather History & Observations

Time (CDT) Temp. Dew Point Humidity Pressure Visibility Wind Dir Wind Speed Gust Speed Precip Events Conditions
12:53 AM 70.0 °F 55.9 °F 61% 29.67 in 10.0 mi SW 17.3 mph 24.2 mph N/A   Clear
1:53 AM 69.1 °F 55.9 °F 63% 29.66 in 10.0 mi SW 17.3 mph - N/A   Clear
2:53 AM 69.1 °F 54.0 °F 58% 29.65 in 10.0 mi SW 17.3 mph - N/A   Clear
3:53 AM 69.1 °F 53.1 °F 57% 29.65 in 10.0 mi SW 16.1 mph - N/A   Clear
4:53 AM 68.0 °F 52.0 °F 56% 29.64 in 10.0 mi SW 18.4 mph - N/A   Clear
5:53 AM 69.1 °F 51.1 °F 53% 29.64 in 10.0 mi SW 18.4 mph 27.6 mph N/A   Clear
6:53 AM 68.0 °F 51.1 °F 55% 29.66 in 10.0 mi SW 19.6 mph - N/A   Clear
7:53 AM 68.0 °F 50.0 °F 52% 29.69 in 10.0 mi SW 19.6 mph - N/A   Clear
8:53 AM 69.1 °F 51.1 °F 53% 29.70 in 10.0 mi SW 17.3 mph 24.2 mph N/A   Clear
9:53 AM 75.0 °F 48.9 °F 40% 29.71 in 10.0 mi WSW 17.3 mph - N/A   Clear
10:53 AM 79.0 °F 42.1 °F 27% 29.71 in 10.0 mi WSW 18.4 mph - N/A   Clear
11:53 AM 84.0 °F 34.0 °F 17% 29.71 in 10.0 mi West 16.1 mph 25.3 mph N/A   Clear
12:53 PM 88.0 °F 30.9 °F 13% 29.69 in 10.0 mi WNW 16.1 mph 23.0 mph N/A   Clear
1:53 PM 89.1 °F 32.0 °F 13% 29.66 in 10.0 mi WNW 21.9 mph 27.6 mph N/A   Clear
2:53 PM 88.0 °F 30.9 °F 13% 29.65 in 10.0 mi NW 16.1 mph 23.0 mph N/A   Clear
3:53 PM 89.1 °F 30.0 °F 12% 29.63 in 10.0 mi NW 11.5 mph 19.6 mph N/A   Clear
4:53 PM 90.0 °F 27.0 °F 10% 29.64 in 10.0 mi NNW 12.7 mph 24.2 mph N/A   Clear
5:53 PM 89.1 °F 28.9 °F 12% 29.64 in 10.0 mi North 12.7 mph - N/A   Clear
6:53 PM 81.0 °F 36.0 °F 20% 29.66 in 10.0 mi North 4.6 mph - N/A   Clear
7:53 PM 75.9 °F 35.1 °F 23% 29.68 in 10.0 mi Calm Calm - N/A   Clear
8:53 PM 70.0 °F 37.9 °F 31% 29.72 in 10.0 mi Calm Calm - N/A   Clear
9:53 PM 70.0 °F 36.0 °F 29% 29.73 in 10.0 mi SW 10.4 mph - N/A   Clear
10:53 PM 68.0 °F 36.0 °F 31% 29.74 in 10.0 mi SW 11.5 mph - N/A   Clear
11:53 PM 69.1 °F 34.0 °F 27% 29.74 in 10.0 mi SW 12.7 mph - N/A   Clear